www.pogodaiklimat.ru

Погода и климат >> Архив погоды >> Россия >> Мордовия >> Темников


ПОГОДА в Темникове

  • Прогноз погоды в Темникове
  • Монитор погоды в Темникове
  • Климат города

АРХИВ ПОГОДЫ в Темникове

Время (UTC), дата Ветер
(напр.,м/с)
 
Видим.   Явления Облачность Т
(С)
Тd
(С)
f
(%)
Тe
(С)
Тes
(С)
Комфортность P
(гПа)
Po
(гПа)
Тmin
(С)
Tmax
(С)
R
(мм)
R24
(мм)
S
(см)
06 14.02 штиль 0
{1}
20 км 1/0
[Cs]
-16.3 -18.9 80 -16 -15 1033.7 1014.8
09 14.02 ЮВ 1-1
{2}
20 км 1/0
[Cs]
-10.9 -14.4 75 -13 -9 1034.2 1015.8
12 14.02 ЮВ 1-2
{3}
20 км 1/0
[Cs]
-7.7 -13.7 62 -10 -8 1033.9 1015.6
15 14.02 В 1-1
{2}
10 км 3/0
[Cs]
-12.2 -14.9 80 -14 -14 1034.9 1016.3 -7.5
18 14.02 В 2-2
{2}
10 км ясно -13.2 -15.2 85 -18 -18 1035.7 1017.0
21 14.02 В 1-2
{2}
10 км ясно -14.8 -16.1 90 -17 -17 1036.4 1017.6
00 15.02 В 1-1
{2}
10 км ясно -17.0 -18.3 90 -20 -20 1037.7 1018.6
03 15.02 штиль 0
{1}
10 км ясно -18.9 -20.8 85 -19 -19 1038.0 1018.9 -19.0 26
06 15.02 В 1-2
{2}
20 км 3/0
[Cs]
-17.9 -20.5 80 -21 -20 1039.1 1020.0 -19.4
09 15.02 В 2-3
{3}
20 км 3/0
[Cs]
-12.4 -15.9 75 -17 -14 1039.7 1021.0
12 15.02 ЮВ 2-3
{4}
20 км 6/4 600 м
[Sc Ac trans]
-10.7 -15.1 70 -15 -15 1039.8 1021.3
15 15.02 В 1-2
{3}
10 км 8/6 600 м
[Sc Ac trans]
-11.6 -15.1 75 -14 -14 1040.0 1021.3 -10.0
18 15.02 ЮВ 2-3
{3}
10 км 3/1 600 м
[Sc Ci fib]
-12.1 -14.8 80 -17 -17 1040.3 1021.6
21 15.02 В 2-2
{3}
10 км 10/3 600 м
[Sc Ac As]
-12.0 -14.0 85 -17 -17 1040.1 1021.4
00 16.02 ЮВ 3-4
{4}
10 км 10/5 600 м
[Sc Ac As]
-9.2 -12.2 79 -15 -15 1039.8 1021.3
03 16.02 ЮВ 3-4
{5}
10 км 10/6 600 м
[Sc Ac trans]
-8.9 -11.8 79 -15 -15 1039.6 1021.2 -13.1 26
06 16.02 ЮВ 3-5
{6}
10 км в посл. час снег 9/6 600 м
[Sc Ac trans]
-7.9 -11.5 75 -14 -13 1039.6 1021.2
09 16.02 ЮВ 3-6
{7}
10 км {снег} 9/8 300 м
[St Ac As]
-6.3 -10.8 70 -12 -11 1039.6 1021.4
12 16.02 ЮВ 4-7
{8}
20 км {снег} 8/8 600 м
[Sc]
-5.2 -10.6 66 -11 -11 1038.7 1020.6
15 16.02 ЮВ 2-4
{7}
10 км 10/10 300 м
[St]
-5.6 -9.8 72 -10 -10 1038.4 1020.2 -5.1 0.0
18 16.02 ЮВ 3-6
{6}
10 км 10/10 300 м
[St]
-6.0 -9.9 74 -11 -11 1038.1 1019.9
21 16.02 ЮВ 4-7
{7}
10 км 10/10 300 м
[St]
-6.9 -10.6 75 -13 -13 1037.2 1019.0
00 17.02 ЮВ 3-5
{7}
10 км 10/8 600 м
[Sc Ac trans]
-8.4 -11.6 78 -14 -14 1036.8 1018.4
03 17.02 ЮВ 3-6
{6}
10 км 8/6 600 м
[Sc Ac trans]
-8.4 -12.1 75 -14 -14 1035.6 1017.3 -8.5 26
06 17.02 ЮВ 4-7
{8}
20 км 9/6 600 м
[Sc Ac trans]
-8.4 -12.1 75 -15 -15 1035.1 1016.8 -8.6
09 17.02 ЮВ 3-7
{8}
20 км {снег} 10/6 600 м
[Sc As trans]
-7.4 -10.0 82 -13 -13 1034.3 1016.0
12 17.02 ЮВ 4-8
{9}
20 км {снег} 10/6 600 м
[Sc Ac As]
-6.0 -9.1 79 -12 -12 1032.5 1014.3
15 17.02 ЮВ 4-7
{8}
10 км 10/5 600 м
[Sc Ac As]
-5.9 -9.8 74 -12 -12 1031.5 1013.3 -5.8 0.5
18 17.02 ЮВ 4-6
{9}
10 км позёмок {снег, метель} 10/9 300 м
[Frnb As op]
-5.7 -10.4 69 -12 -12 1030.3 1012.2
21 17.02 ЮВ 4-7
{9}
10 км позёмок {метель} 10/10 300 м
[St]
-6.6 -11.6 68 -13 -13 1029.2 1011.1
00 18.02 ЮВ 2-5
{7}
10 км {метель} 10/10 300 м
[St]
-8.0 -12.6 69 -12 -12 1028.5 1010.3
03 18.02 ЮВ 3-6
{7}
10 км 10/10 300 м
[St]
-7.8 -11.9 72 -13 -13 1027.1 1008.9 -8.0 0.2 27
06 18.02 ЮВ 4-6
{7}
4000 м слабый снег 10/10 300 м
[Frnb Ns]
-8.1 -11.3 78 -15 -15 1026.5 1008.3 -8.2
09 18.02 ЮВ 4-7
{9}
4000 м слабый снег {метель} 10/10 300 м
[Frnb Ns]
-6.5 -9.7 78 -13 -13 1025.3 1007.3
12 18.02 ЮВ 4-6
{8}
2000 м снег {метель} 10/10 300 м
[Frnb Ns]
-5.6 -8.2 82 -12 -12 1023.8 1005.8
15 18.02 ЮВ 3-5
{8}
4000 м слабый снег {метель} 10/10 300 м
[Frnb Ns]
-5.7 -7.5 87 -11 -11 1022.3 1004.3 -5.5 0.7
18 18.02 Ю 3-5
{6}
4000 м слабый снег {метель} 10/10 300 м
[Frnb Ns]
-6.5 -8.5 86 -12 -12 1022.0 1004.0
21 18.02 Ю 2-3
{5}
10 км 10/10 300 м
[St]
-8.9 -10.9 85 -13 -13 1021.1 1003.0
00 19.02 ЮВ 1-1
{3}
10 км 10/10 300 м
[St]
-9.5 -11.1 88 -12 -12 1021.1 1002.8
03 19.02 ЮВ 1-1
{3}
4000 м слабый снег 10/10 300 м
[Frnb Ns]
-10.1 -11.4 90 -12 -12 1020.1 1001.9 -10.1 0.3 31
06 19.02 Ю 2-4
{4}
20 км {снег} 10/8 600 м
[Sc Ac trans]
-8.8 -10.7 86 -13 -13 1019.9 1001.9 -11.1
09 19.02 ЮВ 2-3
{4}
4000 м слабый снег 10/10 300 м
[Frnb Ns]
-5.9 -8.1 84 -10 -10 1019.5 1001.6
12 19.02 ЮВ 2-4
{5}
4000 м слабый снег 10/10 300 м
[Frnb Ns]
-4.2 -6.5 84 -8 -8 1018.7 1000.9
15 19.02 В 1-1
{4}
4000 м слабый снег 10/10 300 м
[Frnb Ns]
-3.8 -6.0 85 -6 -6 1018.4 1000.6 -3.2 0.6
18 19.02 Ю 2-2
{2}
4000 м слабый снег 10/10 300 м
[Frnb]
-4.1 -5.3 91 -8 -8 1018.0 1000.2
21 19.02 ЮЗ 2-3
{4}
4000 м слабый снег 10/10 300 м
[Frnb Ns]
-3.8 -5.3 89 -8 -8 1017.2 999.4
00 20.02 ЮЗ 2-4
{5}
4000 м {снег} 10/10 300 м
[St]
-4.7 -6.4 88 -9 -9 1016.8 999.0
03 20.02 ЮЗ 3-4
{5}
4000 м слабый снег 10/10 300 м
[Frnb Ns]
-5.0 -6.3 91 -11 -11 1016.1 998.3 -5.0 0.9 28
06 20.02 ЮЗ 3-5
{5}
10 км {снег} 10/8 300 м
[Sc As trans]
-4.6 -6.2 89 -10 -10 1016.0 998.3
09 20.02 СЗ 2-3
{6}
20 км в посл. час снег 10/6 300 м
[Sc As trans]
-3.8 -6.7 80 -8 -7 1016.4 998.7
12 20.02 З 2-4
{5}
4000 м снег 10/10 300 м
[Frnb Ns]
-2.9 -7.5 71 -7 -7 1016.1 998.5
15 20.02 З 4-7
{7}
4000 м {снег} 10/6 300 м
[Sc As trans]
-5.6 -9.4 75 -12 -12 1016.8 999.0 -2.5 0.6
18 20.02 З 2-4
{7}
4000 м слабый снег 10/10 300 м
[Frnb Ns]
-6.8 -9.2 83 -11 -11 1017.8 999.9
21 20.02 З 2-3
{6}
10 км {снег} 8/6 600 м
[Sc Ac trans]
-7.6 -9.8 84 -12 -12 1018.0 1000.0
00 21.02 З 2-4
{5}
4000 м слабый снег 10/10 300 м
[Frnb Ns]
-8.4 -10.7 83 -13 -13 1018.5 1000.5

 

Местоположение метеостанции Темников (Мордовия, Россия): широта 54.63 долгота 43.23 высота над уровнем моря 139 м.

В архиве по умолчанию представлена погода в Темникове за последнюю неделю. Архивные данные за месяц целиком и за предыдущие месяцы, начиная с января 2011 года, Вы можете получить, выбрав интересующий диапазон дат из раскрывающегося списка и нажав кнопку "Ввод!".

Внимание! Время в таблицах - всемирное. Для получения местного времени необходимо прибавить поправку, которая в Темникове равна 3 ч.

Смотрите также архив погоды в соседних городах и на ближайших метеорологических станциях:

Погода в Краснослободске (Мордовия, Россия) (41 км)
Погода в Торбеево (Мордовия, Россия) (61 км)
Погода в Сасово (Рязанская область, Россия) (87 км)
Погода в Арзамасе (Нижегородская область, Россия) (89 км)
Погода в Лукоянове (Нижегородская область, Россия) (93 км)
Погода в Елатьме (Рязанская область, Россия) (100 км)
Погода в Выксе (Нижегородская область, Россия) (105 км)
Погода в Инсаре (Мордовия, Россия) (113 км)
Погода в Муроме (Владимирская область, Россия) (132 км)
Погода в Земетчино (Пензенская область, Россия) (134 км)

Пояснения к столбцам:

Ветер - указаны скорость ветра в м/с - средняя за 10 мин, порывы в срок и между сроками (в фигурных скобках) и направление, откуда дует ветер: С - северный, СВ - северо-восточный, В - восточный, ЮВ - юго-восточный, Ю - южный, ЮЗ - юго-западный, З - западный, СЗ - северо-западный.
Видимость - горизонтальная дальность видимости в метрах или километрах. При видимости от 1 до 10 км при отсутствии осадков обычно наблюдается дымка, при ухудшении видимости до 1 км и менее - туман. В сухую погоду видимость может ухудшаться дымом, пылью или мглою.
Явления - указаны атмосферные явления, наблюдавшиеся в срок или в последний час перед сроком; фигурными скобками обозначены явления, наблюдавшиеся между сроками (за 1-3 часа до срока); квадратными скобками обозначены град или гололедные отложения с указанием их диаметра в мм.
Облачность - указаны через наклонную черту общая и нижняя облачность в баллах и высота нижней границы облаков в метрах; квадратными скобками обозначены формы облаков: Ci - перистые, Cs - перисто-слоистые, Cc - перисто-кучевые, Ac - высококучевые, As - высокослоистые, Sc - слоисто-кучевые, Ns - слоисто-дождевые, Cu - кучевые, Cb - кучево-дождевые. Подробнее классификацию облаков см. в Атласе облаков (PDF).
T - Температура воздуха - температура, измеренная на высоте 2 м над землей.
Td - Температура точки росы - температура, при понижении до которой содержащийся в воздухе водяной пар достигнет насыщения.
f - Относительная влажность воздуха - влажноcть воздуха, измеренная на высоте 2 м над землей.
Te - Эффективная температура - температура, которую ощущает одетый по сезону человек в тени. Характеристика душности погоды. При расчете учитывается влияние влажности воздуха и скорости ветра на теплоощущения человека.
Tes - Эффективная температура на солнце - температура, которую ощущает человек, с поправкой на солнечный нагрев. Характеристика знойности погоды. Зависит от высоты солнца над горизонтом, облачности и скорости ветра. Ночью, в пасмурную погоду, а также при ветре 12 м/с и более поправка равна нулю.
P - Атмосферное давление - приведенное к уровню моря атмосферное давление.
Po - Атмосферное давление - измеренное на уровне метеостанции атмосферное давление.
Tmin - Минимальная температура - минимум температуры воздуха на высоте 2 м над землей.
Tmax - Максимальная температура - максимум температуры воздуха на высоте 2 м над землей.
R - Количество осадков - Количество выпавших осадков за период времени, мм. При наведении курсора мыши на число - период времени, за который выпало указанное количество осадков.
R24 - Количество осадков - Количество выпавших осадков за 24 часа, мм.
S - Снежный покров - Высота снежного покрова, см. При наведении курсора мыши на число - состояние снежного покрова и степень покрытия местности в баллах.